TimeCDT,TemperatureF,Dew PointF,Humidity,Sea Level PressureIn,VisibilityMPH,Wind Direction,Wind SpeedMPH,Gust SpeedMPH,PrecipitationIn,Events,Conditions,WindDirDegrees,DateUTC
12:15 AM,56.5,53.1,88,30.01,10.0,Calm,Calm,-,N/A,,Clear,0,2014-08-13 05:15:00
12:35 AM,56.5,53.1,88,30.01,10.0,Calm,Calm,-,N/A,,Clear,0,2014-08-13 05:35:00
12:55 AM,55.9,52.7,89,30.01,10.0,Calm,Calm,-,N/A,,Clear,0,2014-08-13 05:55:00
1:15 AM,55.4,52.0,88,30.01,10.0,Calm,Calm,-,N/A,,Clear,0,2014-08-13 06:15:00
1:35 AM,55.0,52.3,91,30.01,10.0,Calm,Calm,-,N/A,,Clear,0,2014-08-13 06:35:00
1:55 AM,54.7,52.2,91,30.02,10.0,Calm,Calm,-,N/A,,Clear,0,2014-08-13 06:55:00
2:15 AM,54.1,51.6,91,30.02,10.0,Calm,Calm,-,N/A,,Clear,0,2014-08-13 07:15:00
2:35 AM,54.0,51.6,92,30.02,10.0,Calm,Calm,-,N/A,,Clear,0,2014-08-13 07:35:00
2:55 AM,53.6,51.1,91,30.02,10.0,Calm,Calm,-,N/A,,Clear,0,2014-08-13 07:55:00
3:15 AM,53.1,50.9,92,30.03,10.0,Calm,Calm,-,N/A,,Clear,0,2014-08-13 08:15:00
3:35 AM,52.9,51.1,94,30.02,10.0,Calm,Calm,-,N/A,,Clear,0,2014-08-13 08:35:00
3:55 AM,52.9,50.9,93,30.02,10.0,Calm,Calm,-,N/A,,Clear,0,2014-08-13 08:55:00
4:15 AM,52.3,50.5,94,30.03,10.0,Calm,Calm,-,N/A,,Clear,0,2014-08-13 09:15:00
4:35 AM,52.0,50.0,93,30.03,10.0,Calm,Calm,-,N/A,,Clear,0,2014-08-13 09:35:00
4:55 AM,52.5,50.4,92,30.04,10.0,Calm,Calm,-,N/A,,Clear,0,2014-08-13 09:55:00
5:15 AM,51.3,49.6,94,30.04,10.0,Calm,Calm,-,N/A,,Clear,0,2014-08-13 10:15:00
5:35 AM,51.4,49.8,94,30.04,10.0,Calm,Calm,-,N/A,,Clear,0,2014-08-13 10:35:00
5:55 AM,50.9,49.1,94,30.05,10.0,Calm,Calm,-,N/A,,Clear,0,2014-08-13 10:55:00
6:15 AM,51.8,50.2,94,30.06,10.0,Calm,Calm,-,N/A,,Clear,0,2014-08-13 11:15:00
6:35 AM,53.2,51.6,94,30.06,10.0,Calm,Calm,-,N/A,,Clear,0,2014-08-13 11:35:00
6:55 AM,54.0,51.6,92,30.06,10.0,Calm,Calm,-,N/A,,Clear,0,2014-08-13 11:55:00
7:35 AM,58.5,54.3,86,30.07,10.0,Calm,Calm,-,N/A,,Clear,0,2014-08-13 12:35:00
7:55 AM,60.3,55.6,85,30.08,10.0,Calm,Calm,-,N/A,,Clear,0,2014-08-13 12:55:00
8:15 AM,62.6,54.0,73,30.08,10.0,NW,3.5,-,N/A,,Clear,320,2014-08-13 13:15:00
8:35 AM,64.2,54.1,70,30.09,10.0,Calm,Calm,-,N/A,,Clear,0,2014-08-13 13:35:00
8:55 AM,66.4,54.3,65,30.09,10.0,Calm,Calm,-,N/A,,Clear,0,2014-08-13 13:55:00
9:15 AM,68.0,55.4,64,30.08,10.0,WNW,4.6,-,N/A,,Clear,290,2014-08-13 14:15:00
9:35 AM,70.7,55.6,59,30.08,10.0,West,3.5,-,N/A,,Clear,270,2014-08-13 14:35:00
9:55 AM,71.6,55.4,57,30.09,10.0,West,5.8,-,N/A,,Clear,270,2014-08-13 14:55:00
10:15 AM,73.9,54.0,50,30.08,10.0,West,9.2,-,N/A,,Clear,280,2014-08-13 15:15:00
10:35 AM,74.5,54.7,50,30.08,10.0,West,6.9,-,N/A,,Clear,260,2014-08-13 15:35:00
10:55 AM,75.6,55.8,50,30.08,10.0,WNW,6.9,-,N/A,,Clear,300,2014-08-13 15:55:00
11:15 AM,76.3,55.9,49,30.08,10.0,West,9.2,-,N/A,,Clear,280,2014-08-13 16:15:00
11:35 AM,77.2,55.2,47,30.08,10.0,NW,5.8,-,N/A,,Clear,310,2014-08-13 16:35:00
11:55 AM,78.1,56.7,48,30.08,10.0,WNW,8.1,-,N/A,,Clear,300,2014-08-13 16:55:00
12:15 PM,78.4,56.7,47,30.07,10.0,NW,6.9,-,N/A,,Clear,320,2014-08-13 17:15:00
12:35 PM,79.0,56.5,46,30.07,10.0,West,10.4,-,N/A,,Clear,270,2014-08-13 17:35:00
12:55 PM,79.5,56.1,44,30.06,10.0,WNW,9.2,-,N/A,,Clear,300,2014-08-13 17:55:00
1:15 PM,80.2,55.4,42,30.06,10.0,West,6.9,-,N/A,,Clear,270,2014-08-13 18:15:00
1:35 PM,80.8,56.7,43,30.06,10.0,NNW,8.1,-,N/A,,Clear,330,2014-08-13 18:35:00
1:55 PM,81.7,55.9,41,30.06,10.0,NNW,8.1,-,N/A,,Clear,330,2014-08-13 18:55:00
2:15 PM,81.5,56.1,42,30.06,10.0,West,6.9,-,N/A,,Clear,280,2014-08-13 19:15:00
2:35 PM,81.7,55.6,41,30.05,10.0,West,9.2,-,N/A,,Scattered Clouds,260,2014-08-13 19:35:00
2:55 PM,81.0,55.6,42,30.05,10.0,West,12.7,-,N/A,,Scattered Clouds,280,2014-08-13 19:55:00
3:15 PM,81.7,55.9,41,30.04,10.0,WNW,9.2,16.1,N/A,,Scattered Clouds,300,2014-08-13 20:15:00
3:35 PM,81.7,55.0,40,30.04,10.0,West,10.4,16.1,N/A,,Clear,280,2014-08-13 20:35:00
3:55 PM,81.5,55.4,41,30.03,10.0,West,9.2,-,N/A,,Clear,270,2014-08-13 20:55:00
4:15 PM,81.5,55.9,41,30.03,10.0,West,10.4,-,N/A,,Scattered Clouds,270,2014-08-13 21:15:00
4:35 PM,81.3,56.3,42,30.03,10.0,West,6.9,-,N/A,,Scattered Clouds,270,2014-08-13 21:35:00
4:50 PM,82.4,57.2,42,30.03,10.0,WNW,9.2,-,N/A,,Scattered Clouds,290,2014-08-13 21:50:00
5:15 PM,81.3,57.0,43,30.03,10.0,WNW,9.2,-,N/A,,Clear,300,2014-08-13 22:15:00
5:35 PM,81.1,57.7,45,30.02,10.0,West,8.1,-,N/A,,Clear,280,2014-08-13 22:35:00
5:55 PM,81.3,57.6,44,30.02,10.0,West,9.2,-,N/A,,Clear,260,2014-08-13 22:55:00
6:15 PM,80.2,57.7,46,30.01,10.0,West,5.8,-,N/A,,Clear,260,2014-08-13 23:15:00
6:35 PM,79.7,58.6,48,30.01,10.0,West,5.8,-,N/A,,Clear,270,2014-08-13 23:35:00
6:55 PM,78.8,58.8,50,30.02,10.0,West,5.8,-,N/A,,Clear,270,2014-08-13 23:55:00
7:15 PM,78.8,59.0,51,30.02,10.0,WSW,4.6,-,N/A,,Clear,250,2014-08-14 00:15:00
7:35 PM,77.0,59.0,54,30.01,10.0,West,5.8,-,N/A,,Clear,260,2014-08-14 00:35:00
7:55 PM,75.4,59.4,57,30.01,10.0,WSW,4.6,-,N/A,,Clear,250,2014-08-14 00:55:00
8:35 PM,73.2,60.1,63,30.02,10.0,WSW,3.5,-,N/A,,Scattered Clouds,240,2014-08-14 01:35:00
11:15 PM,69.1,60.3,73,30.03,10.0,Calm,Calm,-,N/A,,Mostly Cloudy,0,2014-08-14 04:15:00
11:35 PM,67.3,60.1,78,30.03,10.0,SSW,3.5,-,N/A,,Scattered Clouds,200,2014-08-14 04:35:00
11:55 PM,67.5,60.4,78,30.03,10.0,Calm,Calm,-,N/A,,Mostly Cloudy,0,2014-08-14 04:55:00